Regional Weather Roundup
Issued by NWS

Home | Current Version | Previous Version | Text Only | Print | Product List | Glossary On
Versions: 1 2 3 4 5 6 7 8 9 10 11 12 13 14 15 16 17 18 19 20 21 22 23 24 25 26 27
000
ASUS42 KKEY 241010
RWRKEY

FLORIDA REGIONAL WEATHER ROUNDUP FOR THE FLORIDA KEYS
NATIONAL WEATHER SERVICE KEY WEST FLORIDA
600 AM EDT FRI OCT 24 2014

...SOUTH FLORIDA AND THE KEYS...

CITY           SKY/WX    TMP DP  RH WIND       PRES   REMARKS
FORT MYERS     CLEAR     64  58  80 NE9       29.89R
SW REGIONAL AP CLEAR     66  58  75 NE8       29.89R
NAPLES         CLEAR     69  60  73 NE9       29.86S
MIAMI          RAIN      74  72  93 NE10      29.84S FOG
WEST KENDALL   HVY RAIN  75  73  93 NE14      29.83F FOG
HOMESTEAD      LGT RAIN  73  72  94 N12       29.82S
MARATHON       LGT RAIN  75  32  20 N13       29.79S
BOCA CHICA NAS CLOUDY    75  72  90 NE15G23   29.80S
KEY WEST INTL  CLOUDY    76  75  97 NE13G21   29.81R

...INTERNATIONAL WEATHER...

CITY           SKY/WX    TMP DP  RH WIND       PRES   REMARKS
NASSAU BAHAMAS RAIN      75  72  88 SE8       29.85S
CANCUN MEXICO  PTCLDY    73  73 100 NW6       29.80S
COZUMEL MEXICO LGT RAIN  72  72 100 CALM      29.79F

ADJACENT COASTAL WATERS...

STATION/POSITION TIME  SKY/WX   TEMP    WIND        PRES    WAVE
                                AIR SEA DIR/SP/G            HT/PER
                 (UTC)          (F)     (DEG/KT/KT) (MB)    (FT/S)
PULASKI SHOAL LI 0900            79      60/ 21/ 24 1009.3F
SAND KEY         0941            77      50/ 23/ 26 1008.9R
SOMBRERO KEY     1000            75      30/ 18/ 19 1009.0F
LONG KEY         0856            76 78   30/ 16/ 18 1009.6F
MOLASSES REEF    1000            78 82   80/ 16/ 18 1008.6F
FOWEY ROCKS      1000            76 81   40/ 24/ 26 1009.8F
Buoy 42080       NOT AVBL

$$



USA.gov is the U.S. government's official web portal to all federal, state and local government web resources and services.